www.pogodaiklimat.ru

Погода и климат >> Архив погоды >> Россия >> город Санкт-Петербург >> Кронштадт


ПОГОДА в Кронштадте

  • Прогноз погоды в Кронштадте
  • Монитор погоды в Кронштадте
  • Климат города

АРХИВ ПОГОДЫ в Кронштадте

Время (UTC), дата Ветер
(напр.,м/с)
 
Видим.   Явления Облачность Т
(С)
Тd
(С)
f
(%)
Тe
(С)
Тes
(С)
Комфортность P
(гПа)
Po
(гПа)
Тmin
(С)
Tmax
(С)
R
(мм)
R24
(мм)
S
(см)
15 14.11 штиль 0 20 км {морось} 10/10 600 м
[Sc]
+6.5 +3.4 81 +6 +6 1020.6 1020.0
18 14.11 штиль 0 20 км {морось} 10/10 600 м
[Sc]
+5.9 +3.3 83 +5 +5 1022.1 1021.5 +7.0 0.0
21 14.11 ЮЗ 1 20 км 10/10 600 м
[Sc]
+5.5 +3.8 89 +4 +4 1024.0 1023.4
00 15.11 штиль 0 20 км 10/10 300 м
[St]
+5.3 +4.6 95 +4 +4 1025.4 1024.8
03 15.11 штиль 0 20 км 10/10 300 м
[St]
+5.3 +4.1 92 +4 +4 1026.8 1026.2 +4.5
06 15.11 Ю 1 20 км 10/10 600 м
[Sc]
+4.9 +4.2 95 +3 +3 1028.4 1027.8 +4.4
09 15.11 Ю 3 20 км 10/10 600 м
[Sc]
+5.5 +4.8 95 +2 +2 1030.1 1029.5
12 15.11 Ю 3 20 км 10/10 600 м
[Sc]
+6.5 +4.2 85 +3 +3 1031.3 1030.7
15 15.11 ЮЗ 4 20 км 10/10 600 м
[Sc]
+6.3 +3.7 83 +3 +3 1032.7 1032.1
18 15.11 Ю 4 20 км 10/10 600 м
[Sc]
+6.1 +3.5 83 +2 +2 1033.5 1032.9 +6.7
21 15.11 Ю 3 20 км 10/10 600 м
[Sc]
+6.1 +3.7 85 +3 +3 1034.5 1033.9
00 16.11 Ю 3 20 км 10/10 600 м
[Sc]
+6.3 +3.2 81 +3 +3 1035.0 1034.4
03 16.11 ЮЗ 4
{10}
20 км 10/10 600 м
[Sc]
+6.3 +3.7 83 +3 +3 1035.3 1034.7 +5.8
06 16.11 ЮЗ 5 20 км 8/0
[Ac trans]
+6.1 +3.0 80 +2 +2 1036.0 1035.4 +5.5
09 16.11 ЮЗ 6 20 км 10/10 600 м
[Sc]
+6.9 +3.4 78 +3 +3 1036.9 1036.3
12 16.11 ЮЗ 6
{11}
20 км 10/8 600 м
[Sc Ac trans]
+7.2 +4.2 81 +3 +3 1036.5 1035.9
15 16.11 ЮЗ 6-10
{10}
20 км 10/10 600 м
[Sc]
+7.5 +4.8 83 +3 +3 1036.1 1035.5
18 16.11
{10}
н/о +7.6 +4.9 83 -34 -34 опасность
переохлаждения
1035.9 1035.3 +8.0
21 16.11 ЮЗ 6-10
{11}
20 км 10/10 600 м
[Sc]
+7.4 +5.4 87 +3 +3 1035.4 1034.8
00 17.11 ЮЗ 6-11
{11}
20 км 6/6 600 м
[Sc]
+6.9 +4.4 84 +2 +2 1034.3 1033.7
03 17.11 ЮЗ 8-12
{13}
20 км 10/10 600 м
[Sc]
+7.7 +4.8 82 +3 +3 1033.1 1032.5 +5.3
06 17.11 З 6-12
{16}
10 км 10/6 300 м
[Frnb As op]
+8.3 +5.4 82 +4 +4 1031.2 1030.6 +5.3
09 17.11 З 7-12
{12}
10 км 10/4 300 м
[Frnb As op]
+7.3 +5.3 87 +3 +3 1030.0 1029.4
12 17.11 З 6-10
{12}
10 км 10/5 300 м
[Frnb Ac As]
+7.3 +4.6 83 +3 +3 1027.2 1026.6
15 17.11 СЗ 3
{10}
20 км 10/3 300 м
[Frnb Ac As]
+7.3 +3.8 78 +5 +5 1026.5 1025.9
18 17.11 З 4 20 км 9/4 600 м
[Sc Ac trans]
+7.1 +3.6 78 +4 +4 1024.2 1023.6 +8.5
21 17.11 СЗ 3 20 км 6/0
[Ac trans]
+5.4 +2.5 82 +2 +2 1022.8 1022.2
00 18.11 С 4 20 км 9/0
[Ac cast]
+5.5 +2.8 83 +2 +2 1022.0 1021.4
03 18.11 С 4 4000 м слабый ливневой дождь 10/10 300 м
[Cb calv]
+5.7 +3.1 83 +2 +2 1023.7 1023.1 +4.5
06 18.11 С 6-12
{14}
20 км {ливн. осадки} 10/8 300 м
[Frnb]
+5.0 +0.9 75 0 0 1026.9 1026.3 +4.1 0.0
09 18.11 С 7-12
{13}
20 км 10/10 600 м
[Sc]
+4.5 0.0 73 -1 -1 1029.4 1028.8
12 18.11 С 7-13
{15}
20 км 10/10 600 м
[Sc]
+4.2 -1.3 67 -1 -1 1031.6 1031.0
15 18.11 СВ 7-12
{13}
20 км 10/10 600 м
[Sc]
+3.8 -0.5 73 -2 -2 1032.8 1032.2
18 18.11 С 5-10
{12}
20 км 9/9 600 м
[Sc]
+2.4 +0.8 89 -3 -3 1034.3 1033.7 +5.3
21 18.11 СВ 6-10
{10}
20 км 9/9 600 м
[Sc]
+2.0 -0.2 85 -4 -4 1035.5 1034.9
00 19.11 СВ 5
{11}
20 км 10/10 600 м
[Sc]
+1.6 -0.6 85 -4 -4 1036.3 1035.7
03 19.11 С 4 20 км 10/10 600 м
[Sc]
+1.8 -1.6 78 -3 -3 1040.0 1036.4 +0.9
06 19.11 СВ 4 20 км {ливн. осадки} 10/10 600 м
[Sc]
+1.8 -2.9 71 -3 -3 1037.4 1036.8 +0.9 0.0
09 19.11 СВ 4 20 км 10/10 600 м
[Sc]
+1.4 -4.5 65 -3 -3 1038.9 1038.3
12 19.11 СВ 3 20 км 10/10 600 м
[Sc]
+1.3 -3.9 68 -3 -3 1038.5 1037.9
15 19.11 СВ 3 20 км 8/8 600 м
[Sc]
+0.8 -3.4 73 -3 -3 1037.8 1037.2
18 19.11 СВ 1 20 км 10/6 600 м
[Sc Ac trans]
+0.6 -2.8 78 -1 -1 1037.4 1036.8 +2.1
21 19.11 З 1 20 км 8/4 600 м
[Sc Ac trans]
+0.6 -3.0 77 -1 -1 1036.4 1035.8
00 20.11 СЗ 1 20 км 6/6 600 м
[Sc]
-0.4 -2.2 88 -2 -2 1035.4 1034.8
03 20.11 ЮЗ 3 20 км 10/10 600 м
[Sc]
+0.2 -2.2 84 -4 -4 1033.0 1032.4 -1.0
06 20.11 З 5 20 км 9/9 600 м
[Sc]
+0.4 -1.3 88 -6 -6 1031.0 1030.4 -1.0
09 20.11 ЮЗ 5 20 км 6/6 600 м
[Sc]
+1.7 -0.2 87 -4 -4 1028.9 1028.3
12 20.11 З 6-11
{11}
20 км 8/6 600 м
[Sc Ci fib]
+3.8 +0.4 78 -2 -2 1026.5 1025.9
15 20.11 С 2
{14}
20 км 10/10 600 м
[Sc]
-1.2 -3.1 87 -5 -5 1027.5 1026.9
18 20.11 С 1 20 км 10/10 600 м
[Sc]
-0.2 -2.6 84 -2 -2 1028.2 1027.6 +4.2
21 20.11 С 2 20 км 9/9 600 м
[Sc]
+0.8 -1.6 84 -3 -3 1028.9 1028.3
00 21.11 С 3 20 км 8/8 600 м
[Sc]
+1.7 -0.8 83 -3 -3 1029.5 1028.9
03 21.11 С 3 20 км 3/0
[Ac trans]
+1.5 -2.9 73 -3 -3 1030.3 1029.7 -1.7
06 21.11 С 2 20 км 5/1 600 м
[Sc Ac trans Ci fib]
-0.3 -1.8 90 -4 -4 1030.6 1030.0 -1.7
09 21.11 С 2 20 км 5/0
[Ac trans Cc]
+0.4 -2.3 82 -3 -3 1030.6 1030.0
12 21.11 СЗ 3 20 км 8/4 600 м
[Sc Ac trans Ci fib]
+1.1 -2.1 79 -3 -3 1029.6 1029.0

 

Местоположение метеостанции Кронштадт (город Санкт-Петербург, Россия): широта 59.98 долгота 29.76 высота над уровнем моря 5 м.

В архиве по умолчанию представлена погода в Кронштадте за последнюю неделю. Архивные данные за месяц целиком и за предыдущие месяцы, начиная с января 2011 года, Вы можете получить, выбрав интересующий диапазон дат из раскрывающегося списка и нажав кнопку "Ввод!".


*Определитесь, кто Вы:
робот инопланетянин человек

Внимание! Время в таблицах - всемирное. Для получения местного времени необходимо прибавить поправку, которая в Кронштадте равна 3 ч.

Смотрите также архив погоды в соседних городах и на ближайших метеорологических станциях:

Погода в Ломоносове (город Санкт-Петербург, Россия) (7 км)
Погода в Лисьем Носу (город Санкт-Петербург, Россия) (13 км)
Погода в Санкт-Петербурге (город Санкт-Петербург, Россия) (30 км)
Погода в Шепелево (Ленинградская область, Россия) (30 км)
Погода в Рощино (Ленинградская область, Россия) (31 км)
Погода в Сосновом Бору (Ленинградская область, Россия) (37 км)
Погода в Озерках (Ленинградская область, Россия) (49 км)
Погода в Воейково (город Санкт-Петербург, Россия) (52 км)
Погода в Волосово (Ленинградская область, Россия) (63 км)
Погода в Шлиссельбурге (Ленинградская область, Россия) (69 км)

Пояснения к столбцам:

Ветер - указаны скорость ветра в м/с - средняя за 10 мин, порывы в срок и между сроками (в фигурных скобках) и направление, откуда дует ветер: С - северный, СВ - северо-восточный, В - восточный, ЮВ - юго-восточный, Ю - южный, ЮЗ - юго-западный, З - западный, СЗ - северо-западный.
Видимость - горизонтальная дальность видимости в метрах или километрах. При видимости от 1 до 10 км при отсутствии осадков обычно наблюдается дымка, при ухудшении видимости до 1 км и менее - туман. В сухую погоду видимость может ухудшаться дымом, пылью или мглою.
Явления - указаны атмосферные явления, наблюдавшиеся в срок или в последний час перед сроком; фигурными скобками обозначены явления, наблюдавшиеся между сроками (за 1-3 часа до срока); квадратными скобками обозначены град или гололедные отложения с указанием их диаметра в мм.
Облачность - указаны через наклонную черту общая и нижняя облачность в баллах и высота нижней границы облаков в метрах; квадратными скобками обозначены формы облаков: Ci - перистые, Cs - перисто-слоистые, Cc - перисто-кучевые, Ac - высококучевые, As - высокослоистые, Sc - слоисто-кучевые, Ns - слоисто-дождевые, Cu - кучевые, Cb - кучево-дождевые. Подробнее классификацию облаков см. в Атласе облаков (PDF).
T - Температура воздуха - температура, измеренная на высоте 2 м над землей.
Td - Температура точки росы - температура, при понижении до которой содержащийся в воздухе водяной пар достигнет насыщения.
f - Относительная влажность воздуха - влажноcть воздуха, измеренная на высоте 2 м над землей.
Te - Эффективная температура - температура, которую ощущает одетый по сезону человек в тени. Характеристика душности погоды. При расчете учитывается влияние влажности воздуха и скорости ветра на теплоощущения человека.
Tes - Эффективная температура на солнце - температура, которую ощущает человек, с поправкой на солнечный нагрев. Характеристика знойности погоды. Зависит от высоты солнца над горизонтом, облачности и скорости ветра. Ночью, в пасмурную погоду, а также при ветре 12 м/с и более поправка равна нулю.
P - Атмосферное давление - приведенное к уровню моря атмосферное давление.
Po - Атмосферное давление - измеренное на уровне метеостанции атмосферное давление.
Tmin - Минимальная температура - минимум температуры воздуха на высоте 2 м над землей.
Tmax - Максимальная температура - максимум температуры воздуха на высоте 2 м над землей.
R - Количество осадков - Количество выпавших осадков за период времени, мм. При наведении курсора мыши на число - период времени, за который выпало указанное количество осадков.
R24 - Количество осадков - Количество выпавших осадков за 24 часа, мм.
S - Снежный покров - Высота снежного покрова, см. При наведении курсора мыши на число - состояние снежного покрова и степень покрытия местности в баллах.